AKDT,Max TemperatureF,Mean TemperatureF,Min TemperatureF,Max Dew PointF,MeanDew PointF,Min DewpointF,Max Humidity, Mean Humidity, Min Humidity, Max Sea Level PressureIn, Mean Sea Level PressureIn, Min Sea Level PressureIn, Max VisibilityMiles, Mean VisibilityMiles, Min VisibilityMiles, Max Wind SpeedMPH, Mean Wind SpeedMPH, Max Gust SpeedMPH,PrecipitationIn, CloudCover, Events, WindDirDegrees
2011-10-1,51,39,30,45,35,28,93,73,61,29.78,29.75,29.72,,,,6,3,,0.00,8,,129
2011-10-2,44,34,30,36,30,27,86,74,65,29.79,29.77,29.73,,,,5,1,,0.00,7,,165
2011-10-3,50,41,32,32,31,30,93,60,47,29.54,29.47,29.42,,,,6,3,,0.00,8,,179
2011-10-4,46,34,24,39,32,23,93,78,66,29.50,29.49,29.49,20,20,20,6,2,,0.00,6,,190
2011-10-5,51,35,19,43,31,18,93,73,58,29.66,29.63,29.58,,,,8,3,,0.00,3,,25
2011-10-6,46,37,32,36,32,30,93,73,61,29.51,29.50,29.48,20,20,20,8,5,,0.00,7,,133
2011-10-7,44,40,35,39,37,34,93,84,76,29.76,29.73,29.68,20,20,20,4,1,,0.00,8,Rain,10
2011-10-8,50,37,24,43,31,23,93,70,52,29.79,29.71,29.60,,,,5,1,,0.00,1,,155
2011-10-9,48,38,28,36,31,27,93,70,57,29.57,29.57,29.56,,,,6,2,,0.00,3,,148
2011-10-10,37,28,19,28,24,16,86,76,70,29.60,29.56,29.50,,,,5,1,,0.00,7,,125
2011-10-11,39,24,10,34,25,5,93,82,65,29.55,29.54,29.53,,,,5,1,,0.00,4,,130
2011-10-12,39,28,17,28,23,16,93,69,52,29.88,29.84,29.78,,,,5,2,,0.00,6,,183
2011-10-13,39,29,21,30,25,18,86,77,61,30.06,30.05,30.04,,,,4,1,,0.00,6,,200
2011-10-14,39,34,30,34,31,25,87,82,80,29.87,29.82,29.73,,,,8,5,,0.00,8,,18
2011-10-15,42,37,32,36,34,30,93,83,76,29.61,29.59,29.57,20,18,15,6,3,,0.00,8,Rain,191
2011-10-16,46,36,28,36,32,27,93,78,57,29.75,29.74,29.71,,,,12,4,,0.00,8,,344
2011-10-17,42,30,19,30,26,18,93,73,57,29.91,29.87,29.79,,,,4,0,,0.00,4,,20
2011-10-18,35,32,28,34,30,28,100,92,81,29.63,29.54,29.47,15,8,2,4,0,,0.00,8,Snow,180
2011-10-19,33,26,19,32,26,18,93,88,81,29.76,29.74,29.72,,,,4,1,,0.00,5,,90
2011-10-20,37,22,8,28,20,3,93,80,60,29.83,29.80,29.76,,,,4,2,,0.00,1,,268
2011-10-21,32,18,5,23,16,1,86,80,69,29.55,29.48,29.41,,,,4,1,,0.00,6,,70
2011-10-22,37,29,21,30,23,16,93,78,56,29.52,29.51,29.49,20,18,15,0,0,,0.00,7,,-1
2011-10-23,32,24,15,25,21,14,93,79,69,29.74,29.73,29.73,,,,4,1,,0.00,4,,70
2011-10-24,37,30,23,34,28,19,87,81,70,29.83,29.83,29.83,,,,4,0,,0.00,7,,280
2011-10-25,37,35,33,34,32,28,87,83,81,29.52,29.31,29.13,20,14,3,6,5,,0.00,8,Rain,5
2011-10-26,33,28,23,34,28,19,100,93,86,29.43,29.33,29.22,,,,4,1,,0.00,5,,90
2011-10-27,35,32,28,32,30,28,100,92,81,29.65,29.62,29.55,6,6,6,5,1,,0.00,7,,0
2011-10-28,30,29,28,27,26,25,93,89,86,29.37,29.36,29.35,15,5,1,6,2,,0.00,8,Snow,97
2011-10-29,24,20,17,23,19,16,93,88,80,29.18,29.15,29.13,20,16,7,6,3,,0.00,8,Snow,10
2011-10-30,26,17,8,21,14,3,92,84,79,29.42,29.40,29.37,,,,4,1,,0.00,6,,175
2011-10-31,30,24,19,27,22,16,93,89,86,29.77,29.74,29.69,20,14,2,5,2,,0.00,8,Snow,60